{"data":{"norad_id":69257,"epoch":"2026-09-19T03:27:29.331936Z","epoch_age_seconds":144161,"freshness":"FRESH","line1":"1 69257U 26117V   26262.14408949  .00016019  00000+0  48408-3 0  9996","line2":"2 69257  53.1565 159.7272 0001107  97.0466 263.0663 15.34409346 17463","mean_motion":15.34409346,"eccentricity":0.0001107,"inclination_deg":53.1565,"raan_deg":159.7272,"arg_perigee_deg":97.0466,"mean_anomaly_deg":263.0663,"bstar":0.00048408,"rev_number":1746,"period_min":93.847186459981,"perigee_km":461.91818412697,"apogee_km":463.43274000607,"semimajor_km":6840.8124620665,"source":"CELESTRAK","updated_at":"2026-09-20T09:00:44.151546Z"}}